Shepherd Bay, Nunavut

1:32 AM CDT on August 17, 2017 (GMT -0500)
Shepherd Bay

Weather History for CYUS - January, 2013

Change the Weather History Date:

Monday, January 7, 2013

  Actual Average Record
Temperature  
Mean Temperature -30 °F -  
Max Temperature -23 °F - - ()
Min Temperature -38 °F -41 °F - ()
Degree Days  
Heating Degree Days 96    
Moisture  
Dew Point -    
Average Humidity    
Maximum Humidity    
Minimum Humidity    
Precipitation  
Precipitation 0.00 in 0.01 in - ()
Sea Level Pressure  
Sea Level Pressure 29.44 in    
Wind  
Wind Speed 8 mph ()    
Max Wind Speed 13 mph    
Max Gust Speed -    
Visibility 6.3 miles    
Events      
T = Trace of Precipitation, MM = Missing Value Source: Averaged Metar Reports

Daily Weather History Graph

Daily Weather History Graph

Search for Another Location

Airport or City:

Trip Planner

Search our weather history database for the weather conditions in past years. The results will help you decide how hot, cold, wet, or windy it might be!

Date:

Astronomy

Jan. 07, 2013 Rise Set
Actual Time 11:47 AM CST 12:52 PM CST
Civil Twilight 9:32 AM CST 3:08 PM CST
Nautical Twilight 8:03 AM CST 4:37 PM CST
Astronomical Twilight 6:50 AM CST 5:50 PM CST
Moon 5:49 AM CST (1/7) 10:20 AM CST (1/7)
Length of Visible Light 5h 35m
Length of Day
1h 04m
Waning Crescent, 22% of the Moon is Illuminated
Jan 7
Waning Crescent
Jan 11
New
Jan 18
First Quarter
Jan 26
Full
Feb 3
Last Quarter

Hourly Weather History & Observations

Time (CST) Temp. Windchill Dew Point Humidity Pressure Visibility Wind Dir Wind Speed Gust Speed Precip Events Conditions
12:00 AM -25 °F - - % 29.42 in 7 mi WSW 4.6 mph - -  
12:00 AM -23.8 °F -37.7 °F - N/A% 29.42 in 8.0 mi WSW 4.6 mph - N/A   Unknown
1:00 AM -32.8 °F -55.6 °F - N/A% 29.44 in 9.0 mi SSE 9.2 mph - N/A   Unknown
2:00 AM -34.6 °F -57.8 °F - N/A% 29.45 in 9.0 mi SE 9.2 mph - N/A   Unknown
3:00 AM -35 °F - - % 29.46 in 7 mi South 10.4 mph - -  
3:00 AM -34.6 °F -60.5 °F - N/A% 29.46 in 8.0 mi South 11.5 mph - N/A   Unknown
4:00 AM -34.6 °F -54.6 °F - N/A% 29.46 in 5.0 mi SSE 6.9 mph - N/A   Unknown
4:19 AM -36.4 °F -61.5 °F - N/A% 29.43 in 3.0 mi SE 10.4 mph - N/A   Unknown
4:38 AM -36.4 °F -60.1 °F - N/A% 29.43 in 3.5 mi SE 9.2 mph - N/A   Unknown
4:47 AM -36.4 °F -61.5 °F - N/A% 29.43 in 3.0 mi SE 10.4 mph - N/A   Unknown
5:00 AM -36.4 °F -61.5 °F - N/A% 29.46 in 2.6 mi SE 10.4 mph - N/A   Unknown
6:00 AM -37 °F - - % 29.46 in 3 mi SSE 10.4 mph - -  
6:00 AM -36.4 °F -61.5 °F - N/A% 29.46 in 3.0 mi SSE 10.4 mph - N/A   Unknown
7:00 AM -38.2 °F -63.7 °F - N/A% 29.46 in 3.5 mi SSE 10.4 mph - N/A   Unknown
8:00 AM -38.2 °F -62.3 °F - N/A% 29.46 in 6.0 mi SE 9.2 mph - N/A   Unknown
8:41 AM -36.4 °F -60.1 °F - N/A% 29.42 in 4.0 mi SE 9.2 mph - N/A   Unknown
8:46 AM -36.4 °F -56.8 °F - N/A% 29.43 in 3.5 mi SE 6.9 mph - N/A   Unknown
8:52 AM -36.4 °F -58.5 °F - N/A% 29.43 in 3.0 mi ESE 8.1 mph - N/A   Unknown
8:53 AM -36.4 °F -58.5 °F - N/A% 29.43 in 3.0 mi ESE 8.1 mph - N/A   Unknown
8:55 AM -36.4 °F -60.1 °F - N/A% 29.43 in 3.0 mi SE 9.2 mph - N/A   Unknown
8:57 AM -36.4 °F -60.1 °F - N/A% 29.43 in 3.0 mi SE 9.2 mph - N/A   Unknown
8:59 AM -36.4 °F -61.5 °F - N/A% 29.43 in 3.5 mi SE 10.4 mph - N/A   Unknown
9:00 AM -37 °F - - % 29.46 in 4 mi SE 9.2 mph - -  
9:00 AM -36.4 °F -61.5 °F - N/A% 29.46 in 4.0 mi SE 10.4 mph - N/A   Unknown
10:00 AM -36.4 °F -60.1 °F - N/A% 29.46 in 9.0 mi ESE 9.2 mph - N/A   Unknown
11:00 AM -38.2 °F -66.2 °F - N/A% 29.45 in 9.0 mi SE 12.7 mph - N/A   Unknown
12:00 PM -37 °F - - % 29.44 in 9 mi ESE 11.5 mph - -  
1:00 PM -36.4 °F -58.5 °F - N/A% 29.44 in 9.0 mi ESE 8.1 mph - N/A   Unknown
2:00 PM -36.4 °F -61.5 °F - N/A% 29.44 in 9.0 mi ESE 10.4 mph - N/A   Unknown
3:00 PM -35 °F - - % 29.45 in 9 mi East 9.2 mph - -  
3:00 PM -34.6 °F -57.8 °F - N/A% 29.45 in 9.0 mi East 9.2 mph - N/A   Unknown
4:00 PM -34.6 °F -59.2 °F - N/A% 29.44 in 9.0 mi ESE 10.4 mph - N/A   Unknown
5:00 PM -34.6 °F -56.3 °F - N/A% 29.44 in 4.0 mi East 8.1 mph - N/A   Unknown
6:00 PM -35 °F - - % 29.43 in 9 mi East 9.2 mph - -  
6:00 PM -34.6 °F -59.2 °F - N/A% 29.43 in 9.0 mi East 10.4 mph - N/A   Unknown
7:00 PM -36.4 °F -58.5 °F - N/A% 29.42 in 9.0 mi ESE 8.1 mph - N/A   Unknown
8:00 PM -38.2 °F -60.7 °F - N/A% 29.42 in 9.0 mi ESE 8.1 mph - N/A   Unknown
9:00 PM -38 °F - - % 29.42 in 9 mi ESE 8.1 mph - -  
9:00 PM -38.2 °F -60.7 °F - N/A% 29.42 in 9.0 mi ESE 8.1 mph - N/A   Unknown
10:00 PM -36.4 °F -56.8 °F - N/A% 29.41 in 9.0 mi East 6.9 mph - N/A   Unknown
11:00 PM -34.6 °F -54.6 °F - N/A% 29.41 in 9.0 mi East 6.9 mph - N/A   Unknown
11:35 PM -34.6 °F -52.6 °F - N/A% 29.37 in 2.8 mi East 5.8 mph - N/A   Unknown
11:51 PM -34.6 °F -52.6 °F - N/A% 29.38 in 7.0 mi East 5.8 mph - N/A   Unknown